Notices

What's New in latest Release from April 7th, 2021:

- Updated Glossary, including Speed of Maximum Gust, and Total Hourly Precipitation

- Updated national and regional climate services offices contacts and prices information

- Addition of station inventory lists for 1981-2010, 1971-2000, and 1961-1990 Normals.

If you haven't already, please take our survey and provide feedback about our website: https://eccc.sondage-survey.ca/f/LanguageSelection.aspx?s=442ca660-fcf1-47c0-95a9-59707d6fd709

Hourly Data Report for May 20, 2020

TRENTON A
ONTARIO
Current Station Operator: DND

44°07'00.000" N
77°32'00.000" W
86.30 m
6158875
71621
YTR

Download Data

Hourly Data (May 2020)
Hourly Data Report for May 20, 2020
TIME
LST
Temp Definition
°C
Dew Point Definition
°C
Rel Hum Definition
%
Precip. Amount Definition
mm

Wind Dir Definition
10's deg

Wind Spd Definition
km/h
Visibility Definition
km
Stn Press Definition
kPa
Hmdx Definition


Wind Chill Definition


Weather Definition


00:00 10.7 3.0 59   4 9 24.1 101.57     Clear
01:00 11.5 2.3 53   6 11 24.1 101.58     Clear
02:00 9.7 2.8 62   6 9 24.1 101.60     Clear
03:00 9.8 3.0 63   3 8 24.1 101.64     Clear
04:00 9.7 2.7 62   5 5 24.1 101.73     Mainly Clear
05:00 10.0 2.6 60   8 5 24.1 101.84     Mainly Clear
06:00 13.4 3.8 52   14 8 24.1 101.89     Mainly Clear
07:00 14.8 2.7 44   16 9 24.1 101.95     Clear
08:00 15.9 2.6 41   17 13 24.1 102.01     Clear
09:00 16.7 1.1 35   17 15 24.1 102.02     Clear
10:00 17.4 1.5 34   15 11 24.1 102.00     Clear
11:00 17.7 1.7 34   19 15 24.1 102.00     Clear
12:00 19.1 2.5 33   16 11 24.1 101.95     Clear
13:00 20.3 2.4 31   11 18 24.1 101.89     Clear
14:00 21.0 1.9 28   14 17 24.1 101.84     Clear
15:00 21.2 2.3 29   14 13 24.1 101.74     Clear
16:00 21.9 3.2 29   17 8 24.1 101.65     Clear
17:00 21.7 2.7 29   16 8 24.1 101.61     Clear
18:00 21.2 2.0 28   17 9 24.1 101.57     Mainly Clear
19:00 20.5 2.3 30   16 4 24.1 101.59     Mainly Clear
20:00 16.6 3.4 41   2 4 24.1 101.58     Mainly Clear
21:00 13.2 3.3 51   5 5 24.1 101.60     Mainly Clear
22:00 10.7 4.5 66   34 4 24.1 101.61     Clear
23:00 9.4 4.0 69   1 4 24.1 101.61     Clear

Notes on Data Quality.

Legend

  • E = Estimated
  • M = Missing
  • NA = Not Available*
  • [empty] = Indicates an unobserved value
Date modified: